QFA742 YPAD-YSSY

Flight info

Callsign QFA742
Flight time N/A
Altitude 37000
Route YPAD/23 3513S13835E AVDEN H247 CULIN Y59 RIVET RIVET4/34L
Aircraft E190/M-SDE3GILORVW/S

Departure

Time N/A
Airport Adelaide International Airport (YPAD)

Arrival

Time 2026-04-26 07:11
Airport Sydney Kingsford Smith International Airport (YSSY)
Time Latitude Longitude Altitude Speed Heading
2026-04-26 06:58 -34.28203 151.13292 2812 ft 184 kts 167°
2026-04-26 06:59 -34.29452 151.13655 2804 ft 184 kts 167°
2026-04-26 06:59 -34.30698 151.14018 2801 ft 184 kts 167°
2026-04-26 06:59 -34.31944 151.14382 2806 ft 184 kts 167°
2026-04-26 06:59 -34.33189 151.14745 2801 ft 184 kts 167°
2026-04-26 07:00 -34.34407 151.15205 2798 ft 184 kts 149°
2026-04-26 07:00 -34.35199 151.16382 2800 ft 185 kts 105°
2026-04-26 07:00 -34.35127 151.17910 2834 ft 185 kts 72°
2026-04-26 07:00 -34.34751 151.19407 2862 ft 186 kts 74°
2026-04-26 07:01 -34.34399 151.20914 2880 ft 186 kts 74°
2026-04-26 07:01 -34.34047 151.22425 2857 ft 187 kts 74°
2026-04-26 07:01 -34.33691 151.23944 2782 ft 186 kts 74°
2026-04-26 07:01 -34.33316 151.25430 2776 ft 185 kts 65°
2026-04-26 07:02 -34.32457 151.26543 2773 ft 183 kts 31°
2026-04-26 07:02 -34.31378 151.27367 2823 ft 186 kts 33°
2026-04-26 07:02 -34.30301 151.28233 2799 ft 186 kts 33°
2026-04-26 07:02 -34.29228 151.29094 2801 ft 185 kts 33°
2026-04-26 07:03 -34.28161 151.29949 2817 ft 186 kts 33°
2026-04-26 07:03 -34.27075 151.30758 2895 ft 181 kts 23°
2026-04-26 07:03 -34.25831 151.31107 2829 ft 189 kts 358°
2026-04-26 07:03 -34.24548 151.30913 2799 ft 180 kts 351°
2026-04-26 07:04 -34.23291 151.30704 2776 ft 184 kts 352°
2026-04-26 07:04 -34.22035 151.30505 2848 ft 181 kts 348°
2026-04-26 07:04 -34.20818 151.30100 2940 ft 182 kts 339°
2026-04-26 07:04 -34.19642 151.29519 3007 ft 185 kts 330°
2026-04-26 07:05 -34.18526 151.28750 3010 ft 185 kts 332°
2026-04-26 07:05 -34.17389 151.28085 3008 ft 184 kts 334°
2026-04-26 07:05 -34.16237 151.27414 3007 ft 183 kts 332°
2026-04-26 07:05 -34.15120 151.26684 3005 ft 183 kts 326°
2026-04-26 07:06 -34.14102 151.25763 3003 ft 183 kts 326°
2026-04-26 07:06 -34.12963 151.25081 3013 ft 183 kts 339°
2026-04-26 07:06 -34.11771 151.24527 3017 ft 184 kts 338°
2026-04-26 07:06 -34.10608 151.23909 3047 ft 180 kts 333°
2026-04-26 07:07 -34.09507 151.23204 2925 ft 178 kts 330°
2026-04-26 07:07 -34.08435 151.22441 2367 ft 184 kts 328°
2026-04-26 07:07 -34.07304 151.21705 1968 ft 181 kts 337°
2026-04-26 07:07 -34.06139 151.21388 1763 ft 163 kts 352°
2026-04-26 07:08 -34.05052 151.21232 1531 ft 152 kts 352°
2026-04-26 07:08 -34.04036 151.21053 1320 ft 144 kts 350°
2026-04-26 07:08 -34.03063 151.20849 1131 ft 141 kts 349°
2026-04-26 07:08 -34.02103 151.20633 984 ft 140 kts 348°
2026-04-26 07:09 -34.01143 151.20403 825 ft 142 kts 348°
2026-04-26 07:09 -34.00170 151.20165 632 ft 143 kts 348°
2026-04-26 07:09 -33.99202 151.19925 451 ft 139 kts 347°
2026-04-26 07:09 -33.98253 151.19672 300 ft 141 kts 346°
2026-04-26 07:10 -33.95601 151.18991 22 ft 77 kts 348°
2026-04-26 07:11 -33.95070 151.18827 21 ft 18 kts 303°
2026-04-26 07:11 -33.95069 151.18721 22 ft 11 kts 258°
2026-04-26 07:11 -33.95074 151.18694 22 ft 0 kts 258°
2026-04-26 07:16 -33.95075 151.18689 22 ft 3 kts 258°
2026-04-26 07:17 -33.95082 151.18645 23 ft 7 kts 258°
2026-04-26 07:17 -33.95095 151.18570 27 ft 11 kts 258°
2026-04-26 07:17 -33.95116 151.18457 25 ft 17 kts 256°
2026-04-26 07:17 -33.95147 151.18295 24 ft 21 kts 258°
2026-04-26 07:18 -33.95179 151.18113 28 ft 23 kts 258°
2026-04-26 07:18 -33.95152 151.17960 24 ft 20 kts 338°
2026-04-26 07:18 -33.95013 151.17921 25 ft 22 kts 348°
2026-04-26 07:18 -33.94850 151.17878 21 ft 25 kts 347°
2026-04-26 07:19 -33.94667 151.17829 20 ft 28 kts 348°
2026-04-26 07:19 -33.94486 151.17783 22 ft 26 kts 347°
2026-04-26 07:19 -33.94308 151.17727 20 ft 24 kts 345°
2026-04-26 07:19 -33.94161 151.17681 20 ft 22 kts 346°
2026-04-26 07:20 -33.94008 151.17637 19 ft 24 kts 347°
2026-04-26 07:20 -33.93839 151.17592 17 ft 26 kts 348°
2026-04-26 07:20 -33.93660 151.17544 15 ft 27 kts 347°
2026-04-26 07:20 -33.93474 151.17499 18 ft 26 kts 355°
2026-04-26 07:21 -33.93298 151.17481 19 ft 26 kts 347°
2026-04-26 07:21 -33.93121 151.17435 21 ft 25 kts 351°
2026-04-26 07:21 -33.92991 151.17429 23 ft 12 kts 52°
2026-04-26 07:21 -33.92989 151.17499 29 ft 8 kts 98°
2026-04-26 07:22 -33.93001 151.17585 29 ft 13 kts 100°
2026-04-26 07:22 -33.93032 151.17709 29 ft 18 kts 117°
2026-04-26 07:22 -33.93070 151.17856 29 ft 15 kts 101°
2026-04-26 07:22 -33.93101 151.17928 29 ft 9 kts 176°
2026-04-26 07:23 -33.93156 151.17916 29 ft 0 kts 191°
2026-04-26 07:23 -33.93170 151.17913 29 ft 0 kts 190°
2026-04-26 07:23 -33.93171 151.17913 29 ft 1 kts 190°
2026-04-26 07:23 -33.93167 151.17913 29 ft 0 kts 189°